Timeline UpdatesTrip UpdatesNews PostsPvt Posts♥♥Travel TipsAdmin PostsConv PostsFollowed PostsChat RequestsBlog PostsPNR Posts

Disclaimer
Search
 
 
Sat Dec 20, 2014 01:48:16 ISTHomeTrainsΣChainsAtlasPNRForumGalleryNewsFAQTripsMembersLoginFeedback
No Recent News for this Train
Other Trains in the News **new
Latest...
.
Sun Feb 23, 2014 (12:51AM)
⇐ Return Journey: Train# 59441

59442/Ahmedabad Mumbai Central Passenger

Time-Table HAS CHANGED.
Sep 02 2014 (11:55PM)
Change Departure Station:
Change Arrival Station:
Post a Train Travel TipPost a Train Travel Tip **new
Post a Comment/Question/Picture/VideoPost a Comment/Question/Picture/Video
Pantry/Catering
✕ NO Pantry Car
✕ NO Catering
RSA - Rake Sharing
59439/59440 and 59441/59442; Both Mumbai Central Ahmedabad Passengers Share rakes
Rake/Coach Composition
3 Sleeper and unreserved coaches.; Sleeper coach from 59076 Bhusaval Surat passenger is attached to this train at Surat.; 2AC coach attached from Surat.
Loco
WCAM-1
News    PNR    Forum    Time-Table    Availability    Fare Chart    Map    Arr/Dep History    Trips    Gallery    ΣChains    X/O    Timeline    
Travel Time: 2h 21m    4 halts    Distance: 72 km    Avg Speed: 30 km/hr
Type: Passenger
Zone: WR/Western
Departs @ 02:14 (Avg 50m late)
Platform# 2
SMTWTFS
Saphale/SAH 
Arrives @ 04:35 (Avg 20m late)
Platform# 5
SMTWTFS
Mumbai Central/BCT 

4 halts. 25 intermediate Stations between Saphale and Mumbai Central

Show ALL intermediate Stations  Show Old Time-Table

#TrkCodeStation NameX/OArrivesAvgDepartsAvgHaltPFDay#KmSpeedElevZoneAddress
1/==/ADIAhmedabad Junction (12)  -12:40+911-420.81751mWRAhmedabad, Gujarat
2/==/MANManinagar (2)  12:51+012:53+02m21-417.74850mWRAhmadabad, Gujarat
3/==/VTAVatva (4)X  12:59+1113:01+132m--1-412.92649mWRDist. Ahmedabad 382445, Gujarat
4/==/GERGeratpur (2)  13:13+2213:14+231m--1-407.64044mWRAhmadabad, Gujarat
5/==/BJDBarejadi Nandej (3)X  13:19+2413:21+242m--1-404.24442mWRBareja-Barejadi Rd, Gujarat
6/==/KANJKanij (3)X  13:27+2713:29+272m--1-399.93439mWRBareja-Barejadi Rd, Gujarat
7/==/NEPNenpur (2)  13:34-13:36-2m--1-397.05035mWRState Highway 3, Gujarat
8/==/MHDMahemdavad Kheda Road (4)X  13:41+2913:43+302m--1-392.86237mWRMahemdavad, Gujarat
9/==/GTEGothaj (2)  13:51+3213:53+332m--1-384.54632mWRState Highway 3, Gujarat
10/==/NDNadiad Junction (4)  14:05+3214:10+305m31-375.34737mWRNadiad, Gujarat
11/==/UTDUtarsanda (4)  14:17+3214:19+322m--1-369.84740mWRUttarsanda, Gujarat
12/==/KBRVKanjari Boriyavi Junction (4)  14:26+3314:28+342m--1-364.34039mWRKanjari, Gujarat
13/--/ANNDAnand Junction (6)X  14:39+3314:44+315m11-356.85244mWRAnand, Gujarat
14/==/VXDVadod (3)  14:52+3314:54+342m--1-350.04144mWRAnand District, Gujarat
15/==/ADDAdas Road (4)  15:00+3415:02+332m--1-345.94642mWRNational Highway 8, Gujarat
16/==/VDAVasad Junction (3)  15:08+3415:10+352m--1-341.33040mWRVasad, Gujarat
17/==/NDRNandesari (2)  15:16 15:20-15:18 15:22-2m--1-336.34142mWRNandesari, Gujarat
18/==/RNORanoli (2)O  15:24 15:28+3015:26 15:30+312m--1-332.12139mWRVadodara District, Gujarat
19/==/BJWBajva (3)X  15:37 15:41+3215:39 15:43+352m--1-328.31738mWRVadodara, Gujarat
20/==/BRCVadodara Junction (7)O  16:02 16:08+2916:22 16:28+4420m31-321.13636mWRVadodara 390005, Gujarat
21/==/VSVishvamitri Junction (4)X  16:29 16:33+1:0016:31 16:35+1:002m--1-318.14930mWRVadodara, Gujarat
22/==/MPRMakarpura (4)O  16:38 16:42+1:0016:40 16:44+1:002m--1-312.44830mWRVadodara, Gujarat
23/==/VRMVarnama (2)XO  16:46 16:51+5916:48 16:53+592m--1-306.83428mWRVadodara, Gujarat
24/==/ITAItola (4)XO  16:59 17:00+1:0017:01 17:03+592 3m--1-302.82927mWRNational Highway 8 Vadodara, Gujarat
25/==/KSPRKashipura Sarar (2)XO  17:07 17:11+5817:09 17:13+592m--1-299.04726mWRGIDC Industrial Area, Gujarat
26/==/MYGMiyagam Karjan (2)  17:19 17:23+5617:21 17:25+552m11-291.26029mWRKarjan, Gujarat
27/==/LKDLakodara (4)O  17:29 17:33+5717:31 17:35+582m--1-283.25426mWRNH 8, Gujarat
28/==/PLJPalej (4)  17:39 17:43+5817:41 17:45+592m--1-276.05729mWRPalej, Gujarat
29/==/VREVarediya (4)X  17:48 17:52+1:0017:50 17:54+1:052m--1-269.45821mWRNH 8, Gujarat
30/==/NIUNabipur (3)X  17:57 18:01+1:0717:59 18:03+1:072m--1-262.66124mWRNabipur, Gujarat
31/==/CVJChavaj (2)X  18:06 18:10+1:0718:08 18:12+1:072m--1-255.62520mWRBharuch, Gujarat
32/==/BHBharuch Junction (5)X  18:20 18:24+1:0318:25 18:29+1:075m51-250.66219mWRBharuch, Gujarat
33/==/AKVAnkleshwar Junction (4)XO  18:34 18:38+1:1418:36 18:40+1:182m21-241.23319mWRAnkleshwar, Gujarat
34/==/PAOPanoli (3)X  19:01 18:59+1:1419:03 19:01+1:132m--1-230.91429mWRPanoli, Gujarat
35/==/HATHathuran (2)X  19:18 19:17-19:19 19:18-1m--1-227.16632mWRKosamba, Gujarat
36/==/KSBKosamba Junction (3)XO  19:24 19:22+1:0519:26 19:24+1:042m--1-222.75830mWRKosamba, Gujarat
37/==/KIMKim (2)O  19:34 19:32+1:0519:36 19:34+1:062m--1-214.93018mWRNH 8, Gujarat
38/==/SYNSayan (3)O  19:56 19:54+1:0219:58 19:56+1:012m--1-205.01221mWRSayan Satellite town, Gujarat
39/==/GTXGothangam (2)XO  20:13 20:11+5220:14 20:13+511 2m--1-202.02019mWRAmroli Sayan Rd, Gujarat
40/==/KSEKosad (2)X  20:26 20:24+4620:28 20:26+462m--1-198.3817mWRSurat, Gujarat
41/==/URNUtran (3)X  20:50 20:49+2920:52 20:51+292m--1-195.22615mWRSurat, Gujarat
42/==/STSurat (4)XO  21:00+2621:30+3230m31-191.33419mWRSurat 395001, Gujarat
43/==/UDNUdhna Junction (3)  21:37+4621:38+471m21-187.33616mWRUdhna 394210, Gujarat
44/==/BHETBhestan (2)X  21:46+4721:47+481m21-182.54913mWRSurat, Gujarat
45/==/SCHSachin (3)XO  21:54+4721:55+491m--1-176.85011mWRKansad Road Sachin, Gujarat
46/==/MRLMaroli (3)X  22:03+4822:04+481m--1-170.17215mWRMaroli, Gujarat
47/==/NVSNavsari (3)X  22:11+4922:13+492m--1-161.74514mWRNavsari, Gujarat
48/==/GNSTGandhi Smriti (2)O  22:17-22:19-2m--1-158.76516mWRGandhi Smriti Navsari, Gujarat
49/==/VDHVedchha (3)XO  22:24+4822:26+502m--1-153.23413mWRNavsari, Gujarat
50/==/ACLAncheli (2)X  22:32-22:33-1m--1-149.95720mWRNavsari, Gujarat
51/==/AMLAmalsad (3)  22:37+5122:39+512m--1-146.15612mWRAmalsad, Gujarat
52/==/BIMBilimora Junction (4)O  22:45+4922:47+492m--1-140.55411mWRBilimora, Gujarat
53/==/DGIDungri (3)X  22:57+4922:58+501m--1-131.52420mWRNH 8, Gujarat
54/==/BLValsad (3)X  23:20+3723:30+3610m31-122.66415mWRValsad, Gujarat
55/==/PADPardi (3)X  23:40+4223:42+412m--1-111.96019mWRValsad, Gujarat
56/==/UVDUdvada (3)  23:48+4223:50+432m--1-105.95218mWRUdvada, Gujarat
57/==/VAPIVapi (3)XO  00:01+3800:02+431m--2-96.35527mWRVapi, Gujarat
58/==/KEBKarambeli (2)  00:09+000:11+02m--2-89.94829mWRNational Highway 8, Gujarat
59/==/BLDBhilad (3)X  00:17+5400:19+532m--2-85.16933mWRBhilad, Gujarat
60/==/SJNSanjan (3)X  00:29+5300:31+542m--2-73.55422mWRSanjan, Gujarat
61/==/UBRUmbargam Road (3)X  00:37+5400:39+552m--2-68.16930mWRUmbergaon, Gujarat
62/==/GVDGholvad (4)XO  00:47+5600:50+563m--2-59.04814mWRGholvad, Maharashtra
63/==/DRDDahanu Road (5)XO  01:04+5201:08+514m--2-47.86212mWRDahanu, Maharashtra
64/==/VGNVangaon (3)XO  01:20+5101:23+513m--2-35.57111mWRDist. Palghar, Maharashtra
65/==/BORBoisar (3)X  01:31+5401:34+523m32-26.15217mWRBoisar Tel.no-02525-266626, Maharashtra
66/==/PLGPalghar (3)  01:47+5101:50+543m--2-14.84619mWRPalghar, Maharashtra
67/==/KLVKelve Road (3)O  02:01+5202:03+522m--2-6.44810mWRDist. Palghar, Maharashtra
68/==/SAHSaphale (2)»O  02:11+5102:14+503m220.0328mWRDist. Palghar, Maharashtra
69/==/VRVirar (8)  02:45+3702:50+365m--216.3466mWRDist. Palghar, Maharashtra
70/==/BSRVasai Road (7)O  03:01+3803:03+372m5224.7617mWRVasai 401202, Maharashtra
71/==/BVIMumbai Borivali (8)  03:20+2803:25+275m5242.13819mWRMumbai - 400092, Maharashtra
72/==/DDRMumbai Dadar Western (6)  04:02+2604:05+303m5265.9126mWRMumbai, Maharashtra
73/==/BCTMumbai Central (9)•  04:35+20-5271.8-3mWRMumbai 400008, Maharashtra
Scroll to Top
Scroll to Bottom


Go to Mobile site